Weather in Vasilyevka

Russia / Republic of Mordovia     53°55′44″N   43°51′50″E
temp.,
°C
wind,
m/s
gust,
m/s
humid.,
%
clouds,
%
prec.,
mm/h
press.,
hPa
HPBL,
m
28 february, sun
sun2800:00−15nnw369559 0.0 1012124
03:00−16nw369636 0.0 1013119
06:00−17nw36960 0.0 1014100
09:00−16nnw369515 0.0 1015247
12:00−13nnw359185 0.0 1015378
15:00−11nnw369090 0.0 1016451
18:00−14n239582 0.0 101721
21:00−15n239570 0.0 102020
1 march, mon
mon100:00−17nnw22940 0.0 102120
03:00−17nnw22950 0.0 102220
06:00−17nw229644 0.0 102320
09:00−15nw239536 0.0 102597
12:00−10w239148 0.0 1024247
15:00−8wsw369368 0.0 1023341
18:00−9sw499596 0.0 1021149
21:00−5wsw5119498 0.1 1019517
2 march, tue
tue200:00−4sw71393100 0.1 1015444
03:00−2wsw81595100 1.4 1012632
06:00−1wsw81496100 0.4 1007624
09:000w81398100 1.8 1005759
12:000wnw61199100 1.0 1003648
15:000wnw6109884 1.3 1004666
18:00−2wnw4119097 0.1 1004292
21:00−2wnw5129399 0.3 1006539
3 march, wed
wed300:00−3nw6129397 0.1 1006500
03:00−4nw5119495 0.3 1006424
06:00−5nw5129494 0.2 1007467
09:00−5nw7129294 0.4 1009683
12:00−4nw71190100 0.2 1010883
15:00−4nw71189100 0.4 1012974
18:00−5nw6129198 0.1 1013627
21:00−8nw489191 0.1 1016159
4 march, thu
thu400:00−10wnw479612 0.0 1017119
03:00−9w479620 0.0 1017140
06:00−10wsw479784 0.1 1016136
09:00−6wsw6129285 0.1 1015377
12:00−2wsw8148991 0.0 1012612
15:00−1wsw8158596 0.0 1010751
18:00−2sw81686100 0.0 1008646
21:00−2wsw9188876 0.0 1007667